CW5404 Weather Reports


time (UTC)temp
F
wind
direction
speed
knots
gust
knots
rain 1hr
in
rain 24hr
in
rain mn
in
humidity
%
barometer
mb
20260508140409 45 360 0.0 0.0 0.00 0.00 0.00 92 1020.1
20260508135409 45 360 0.0 0.0 0.00 0.00 0.00 92 1020.2
20260508134909 44 360 0.0 0.0 0.00 0.00 0.00 92 1020.2
20260508134409 44 360 0.0 0.0 0.00 0.00 0.00 92 1020.2
20260508133909 44 360 0.0 0.0 0.00 0.00 0.00 92 1019.8
20260508132909 44 195 0.0 0.0 0.00 0.00 0.00 91 1019.8
20260508132409 44 195 0.0 0.0 0.00 0.00 0.00 91 1019.7
20260508131909 44 195 0.0 0.0 0.00 0.00 0.00 91 1019.7
20260508131409 43 195 0.0 0.0 0.00 0.00 0.00 90 1019.7
20260508130909 43 195 0.0 0.0 0.00 0.00 0.00 90 1019.5
20260508130409 43 195 0.0 0.0 0.00 0.00 0.00 90 1019.5
20260508125909 43 195 0.0 0.0 0.00 0.00 0.00 90 1019.5
20260508125409 43 195 0.0 0.0 0.00 0.00 0.00 90 1019.3
20260508124909 43 195 0.0 0.0 0.00 0.00 0.00 89 1019.3
20260508124409 43 195 0.0 0.0 0.00 0.00 0.00 89 1019.3
20260508123908 44 195 0.0 0.0 0.00 0.00 0.00 89 1019.1
20260508122909 44 195 0.0 0.0 0.00 0.00 0.00 89 1019.1
20260508121909 44 195 0.0 0.0 0.00 0.00 0.00 89 1019.0
20260508121409 44 195 0.0 0.0 0.00 0.00 0.00 89 1019.0
20260508120908 44 195 0.0 0.0 0.00 0.00 0.00 89 1018.6
20260508120409 44 195 0.0 0.0 0.00 0.00 0.00 89 1018.6
20260508115908 44 195 0.0 0.0 0.00 0.00 0.00 89 1018.6
20260508114908 44 195 0.0 0.0 0.00 0.00 0.00 89 1018.6
20260508114409 44 195 0.0 0.0 0.00 0.00 0.00 89 1018.6
20260508113909 44 195 0.0 0.0 0.00 0.00 0.00 89 1018.7
20260508113408 44 195 0.0 0.0 0.00 0.00 0.00 89 1018.7
20260508112908 44 195 0.0 0.0 0.00 0.00 0.00 89 1018.7
20260508112408 44 195 0.0 0.0 0.00 0.00 0.00 89 1018.5
20260508111908 44 195 0.0 0.0 0.00 0.00 0.00 89 1018.5
20260508111408 45 195 0.0 0.0 0.00 0.00 0.00 89 1018.5
20260508110908 45 194 0.0 0.0 0.00 0.00 0.00 89 1018.1
20260508105908 45 360 0.0 0.0 0.00 0.00 0.00 89 1018.1
20260508105408 45 360 0.0 0.0 0.00 0.00 0.00 89 1017.9
20260508104908 45 360 0.0 0.0 0.00 0.00 0.00 89 1017.9
20260508104407 44 360 0.0 0.0 0.00 0.00 0.00 89 1017.9
20260508103907 44 360 0.0 0.0 0.00 0.00 0.00 89 1017.8
20260508103408 44 360 0.0 0.0 0.00 0.00 0.00 89 1017.8
20260508102908 44 195 0.0 0.0 0.00 0.00 0.00 89 1017.8
20260508101908 44 195 0.0 0.0 0.00 0.00 0.00 89 1017.7
20260508101407 44 195 0.0 0.0 0.00 0.00 0.00 89 1017.7
20260508100407 44 195 0.0 0.0 0.00 0.00 0.00 89 1017.6
20260508095908 44 195 0.0 0.0 0.00 0.00 0.00 89 1017.6
20260508095407 44 195 0.0 0.0 0.00 0.00 0.00 89 1017.5
20260508093908 45 195 0.0 0.0 0.00 0.00 0.00 89 1017.2
20260508092907 45 195 0.0 0.0 0.00 0.00 0.00 89 1017.2
20260508091907 45 195 0.0 0.0 0.00 0.00 0.00 89 1017.1
20260508091407 45 195 0.0 0.0 0.00 0.00 0.00 89 1017.1
20260508090907 45 195 0.0 0.0 0.00 0.00 0.00 89 1016.9
20260508090407 45 360 0.0 0.0 0.00 0.00 0.00 89 1016.9
20260508085907 45 360 0.0 0.0 0.00 0.00 0.00 89 1016.9
20260508085407 45 194 0.0 0.0 0.00 0.00 0.00 89 1017.0
20260508084907 46 360 0.0 0.0 0.00 0.00 0.00 89 1017.0
20260508084407 46 360 0.0 0.0 0.00 0.00 0.00 89 1017.0
20260508083407 46 195 0.0 0.0 0.00 0.00 0.00 89 1016.9
20260508082907 47 360 0.0 0.0 0.00 0.00 0.00 89 1016.9
20260508082407 47 360 0.0 0.0 0.00 0.00 0.00 89 1016.8
20260508081907 47 360 0.0 0.0 0.00 0.00 0.00 89 1016.8
20260508081406 47 360 0.0 0.0 0.00 0.00 0.00 89 1016.8
20260508080406 47 360 0.0 0.0 0.00 0.00 0.00 88 1016.6
20260508075906 47 360 0.0 0.0 0.00 0.00 0.00 88 1016.6
20260508073407 48 360 0.0 0.0 0.00 0.00 0.00 86 1016.6
20260508071907 49 360 0.0 0.0 0.00 0.00 0.00 86 1016.4
20260508071406 49 360 0.0 0.0 0.00 0.00 0.00 86 1016.4
20260508070907 49 360 0.0 0.0 0.00 0.00 0.00 86 1016.3
20260508065936 50 360 0.0 0.0 0.00 0.00 0.00 85 1016.3
20260508064907 50 360 0.0 0.0 0.00 0.00 0.00 85 1016.3
20260508064407 50 360 0.0 0.0 0.00 0.00 0.00 84 1016.3
20260508062906 51 195 0.0 0.0 0.00 0.00 0.00 84 1016.4
20260508062406 52 195 0.0 0.0 0.00 0.00 0.00 84 1016.3
20260508061907 52 360 0.0 0.0 0.00 0.00 0.00 83 1016.3
20260508060907 52 360 0.0 0.0 0.00 0.00 0.00 82 1016.2
20260508060407 53 360 0.0 0.0 0.00 0.00 0.00 81 1016.2
20260508055906 53 360 0.0 0.0 0.00 0.00 0.00 81 1016.2
20260508055406 53 360 0.0 0.0 0.00 0.00 0.00 80 1016.3
20260508054906 53 195 0.0 0.0 0.00 0.00 0.00 80 1016.3
20260508053907 54 195 0.0 0.0 0.00 0.00 0.00 79 1016.3
20260508053406 54 195 0.0 0.0 0.00 0.00 0.00 79 1016.3
20260508052406 55 195 0.0 0.0 0.00 0.00 0.00 78 1016.3
20260508050906 56 195 0.0 0.0 0.00 0.00 0.00 76 1016.2
20260508050406 56 195 0.0 0.0 0.00 0.00 0.00 76 1016.2
20260508045406 56 195 0.0 0.9 0.00 0.00 0.00 75 1016.1
20260508043406 58 196 0.0 1.7 0.00 0.00 0.00 72 1016.1
20260508042906 58 255 0.0 0.9 0.00 0.00 0.00 71 1016.1
20260508042406 58 255 0.9 0.9 0.00 0.00 0.00 71 1016.0
20260508041906 58 256 0.0 0.0 0.00 0.00 0.00 69 1016.0
20260508041406 59 256 0.0 0.0 0.00 0.00 0.00 69 1016.1
20260508040906 59 256 0.0 0.0 0.00 0.00 0.00 68 1015.8
20260508040406 59 256 0.0 0.0 0.00 0.00 0.00 67 1015.8
20260508035906 60 256 0.0 0.0 0.00 0.00 0.00 67 1015.8
20260508035406 60 256 0.0 0.0 0.00 0.00 0.00 65 1015.5
20260508034906 60 256 0.0 0.0 0.00 0.00 0.00 64 1015.5
20260508034405 61 256 0.0 0.0 0.00 0.00 0.00 64 1015.5
20260508033906 61 256 0.0 0.0 0.00 0.00 0.00 63 1015.1
20260508032905 62 256 0.0 0.0 0.00 0.00 0.00 62 1015.2
20260508032406 62 256 0.0 0.9 0.00 0.00 0.00 61 1015.1
20260508031905 63 256 0.0 0.9 0.00 0.00 0.00 61 1015.1
20260508031405 63 256 0.0 0.9 0.00 0.00 0.00 62 1015.1
20260508030935 63 255 0.0 0.9 0.00 0.00 0.00 62 1015.0
20260508030406 64 255 0.0 0.9 0.00 0.00 0.00 60 1015.0
20260508025906 64 255 0.0 0.9 0.00 0.00 0.00 61 1015.0
20260508025406 64 255 0.0 0.0 0.00 0.00 0.00 61 1015.1
20260508023905 65 255 0.0 0.9 0.00 0.00 0.00 62 1015.1
20260508023405 65 255 0.9 0.9 0.00 0.00 0.00 61 1015.1
20260508022905 66 257 0.0 1.7 0.00 0.00 0.00 62 1015.1
20260508022405 66 257 0.0 1.7 0.00 0.00 0.00 61 1015.1
20260508021905 66 257 0.0 1.7 0.00 0.00 0.00 61 1015.1
20260508021405 67 257 0.0 1.7 0.00 0.00 0.00 61 1015.1
20260508020905 67 256 0.9 1.7 0.00 0.00 0.00 60 1015.1
20260508020405 67 102 0.9 1.7 0.00 0.00 0.00 58 1015.1
20260508015905 68 103 1.7 1.7 0.00 0.00 0.00 59 1015.1
20260508015405 68 105 0.0 1.7 0.00 0.00 0.00 59 1015.1
20260508014905 68 79 0.0 2.6 0.00 0.00 0.00 57 1015.1
20260508014405 69 86 0.0 4.3 0.00 0.00 0.00 56 1015.1
20260508013905 69 96 0.0 4.3 0.00 0.00 0.00 56 1015.1
20260508013405 69 42 0.9 3.5 0.00 0.00 0.00 54 1015.1
20260508012905 69 31 2.6 3.5 0.00 0.00 0.00 55 1015.1
20260508012405 69 61 0.9 3.5 0.00 0.00 0.00 55 1015.5
20260508011905 69 22 0.0 4.3 0.00 0.00 0.00 55 1015.5
20260508010904 69 38 1.7 4.3 0.00 0.00 0.00 54 1015.5
20260508010404 69 61 1.7 4.3 0.00 0.00 0.00 55 1015.5
20260508005904 69 59 0.0 2.6 0.00 0.00 0.00 53 1015.5
20260508005404 69 58 0.0 2.6 0.00 0.00 0.00 54 1015.5
20260508004904 69 48 2.6 3.5 0.00 0.00 0.00 53 1015.5
20260508004404 69 38 2.6 4.3 0.00 0.00 0.00 52 1015.5
20260508003404 70 63 2.6 4.3 0.00 0.00 0.00 54 1015.5
20260507235404 70 71 2.6 4.3 0.00 0.00 0.00 52 1015.8
20260507234404 70 106 3.5 5.2 0.00 0.00 0.00 53 1015.8
20260507231904 69 62 2.6 3.5 0.00 0.00 0.00 52 1016.2
20260507230404 69 195 2.6 5.2 0.00 0.00 0.00 54 1016.3
20260507224904 69 5 1.7 5.2 0.00 0.00 0.00 53 1016.7
20260507224403 69 54 0.9 4.3 0.00 0.00 0.00 55 1016.7
20260507223903 69 127 1.7 3.5 0.00 0.00 0.00 55 1016.8
20260507223403 69 88 0.0 5.2 0.00 0.00 0.00 53 1016.8
20260507222903 69 129 0.0 5.2 0.00 0.00 0.00 54 1016.8
20260507222403 69 168 1.7 4.3 0.00 0.00 0.00 55 1017.0
20260507221903 69 117 2.6 5.2 0.00 0.00 0.00 55 1017.0
20260507221403 69 42 1.7 5.2 0.00 0.00 0.00 53 1017.0
20260507220903 69 170 0.0 4.3 0.00 0.00 0.00 56 1017.2
20260507220403 68 101 1.7 3.5 0.00 0.00 0.00 57 1017.2
20260507215904 68 175 1.7 4.3 0.00 0.00 0.00 56 1017.2
20260507215403 68 174 3.5 4.3 0.00 0.00 0.00 56 1017.5
20260507214434 67 130 0.9 6.1 0.00 0.00 0.00 56 1017.5
20260507213903 67 175 1.7 5.2 0.00 0.00 0.00 55 1017.6
20260507212905 66 58 0.9 4.3 0.00 0.00 0.00 56 1017.6
20260507212403 66 148 0.0 4.3 0.00 0.00 0.00 54 1017.8
20260507211904 66 126 1.7 4.3 0.00 0.00 0.00 56 1017.8
20260507211404 66 79 1.7 5.2 0.00 0.00 0.00 57 1017.8
20260507210903 66 106 0.9 6.1 0.00 0.00 0.00 55 1018.0
20260507210404 66 175 0.0 6.1 0.00 0.00 0.00 55 1018.0
20260507205934 66 187 0.0 6.1 0.00 0.00 0.00 55 1018.0
20260507205404 66 181 3.5 6.1 0.00 0.00 0.00 57 1018.2
20260507204903 66 142 2.6 5.2 0.00 0.00 0.00 56 1018.2
20260507204403 66 94 0.0 5.2 0.00 0.00 0.00 58 1018.2
20260507203903 65 130 4.3 5.2 0.00 0.00 0.00 60 1018.3
20260507203403 65 106 1.7 6.1 0.00 0.00 0.00 60 1018.3
20260507202903 65 80 0.9 6.1 0.00 0.00 0.00 58 1018.3
20260507202403 65 62 0.9 6.1 0.00 0.00 0.00 58 1018.5
20260507201903 65 191 3.5 5.2 0.00 0.00 0.00 59 1018.5
20260507201403 64 123 2.6 5.2 0.00 0.00 0.00 61 1018.5
20260507200903 64 207 3.5 7.0 0.00 0.00 0.00 59 1018.7
20260507200403 64 122 0.0 7.0 0.00 0.00 0.00 59 1018.7
20260507195933 64 142 3.5 5.2 0.00 0.00 0.00 59 1018.7
20260507195403 63 126 0.9 5.2 0.00 0.00 0.00 62 1018.8
20260507194903 64 86 2.6 6.1 0.00 0.00 0.00 61 1018.8
20260507194403 63 156 0.9 6.1 0.00 0.00 0.00 59 1018.8
20260507193903 63 59 3.5 4.3 0.00 0.00 0.00 61 1018.8
20260507193403 63 49 2.6 3.5 0.00 0.00 0.00 59 1018.8
20260507192903 63 71 1.7 6.1 0.00 0.00 0.00 61 1018.8
20260507192403 63 223 0.9 6.1 0.00 0.00 0.00 59 1019.0
20260507191902 63 63 0.0 5.2 0.00 0.00 0.00 60 1019.0
20260507191402 63 59 1.7 5.2 0.00 0.00 0.00 60 1019.0
20260507190902 63 113 0.9 4.3 0.00 0.00 0.00 60 1019.2
20260507190402 63 194 0.9 4.3 0.00 0.00 0.00 61 1019.2
20260507185932 62 208 3.5 4.3 0.00 0.00 0.00 60 1019.2
20260507185402 62 89 4.3 5.2 0.00 0.00 0.00 60 1019.3
20260507184902 62 231 0.9 5.2 0.00 0.00 0.00 60 1019.3
20260507184402 62 76 4.3 4.3 0.00 0.00 0.00 63 1019.3
20260507183902 61 155 1.7 4.3 0.00 0.00 0.00 64 1019.3
20260507183402 61 208 1.7 4.3 0.00 0.00 0.00 63 1019.3
20260507182903 60 115 0.9 6.1 0.00 0.00 0.00 65 1019.3
20260507182402 61 5 0.0 6.1 0.00 0.00 0.00 64 1019.4
20260507181902 61 137 2.6 3.5 0.00 0.00 0.00 63 1019.4
20260507181404 61 71 0.0 4.3 0.00 0.00 0.00 63 1019.4
20260507180432 62 107 3.5 4.3 0.00 0.00 0.00 65 1019.5
20260507175903 61 85 0.0 4.3 0.00 0.00 0.00 65 1019.5
20260507175432 62 163 0.9 3.5 0.00 0.00 0.00 64 1019.7
20260507174902 62 101 1.7 2.6 0.00 0.00 0.00 66 1019.7
20260507174402 61 43 0.0 4.3 0.00 0.00 0.00 69 1019.7
20260507173932 60 16 1.7 4.3 0.00 0.00 0.00 70 1019.7
20260507173432 60 122 1.7 4.3 0.00 0.00 0.00 68 1019.7
20260507172902 60 98 1.7 4.3 0.00 0.00 0.00 68 1019.7
20260507172402 60 22 0.9 4.3 0.00 0.00 0.00 68 1019.7
20260507171932 60 74 1.7 4.3 0.00 0.00 0.00 70 1019.7
20260507171402 60 48 1.7 4.3 0.00 0.00 0.00 71 1019.7
20260507170902 60 148 1.7 4.3 0.00 0.00 0.00 69 1019.7
20260507170402 59 91 0.9 2.6 0.00 0.00 0.00 71 1019.7
20260507164902 58 32 2.6 4.3 0.00 0.00 0.00 72 1019.7
20260507164402 58 38 4.3 4.3 0.00 0.00 0.00 72 1019.7
20260507163902 58 200 0.0 3.5 0.00 0.00 0.00 73 1019.8
20260507163402 58 143 0.0 4.3 0.00 0.00 0.00 73 1019.8
20260507162901 57 128 0.0 4.3 0.00 0.00 0.00 74 1019.8
20260507162402 57 47 3.5 3.5 0.00 0.00 0.00 74 1019.7
20260507161932 57 63 1.7 3.5 0.00 0.00 0.00 74 1019.7
20260507161402 57 170 2.6 4.3 0.00 0.00 0.00 73 1019.7
20260507160902 58 97 1.7 4.3 0.00 0.00 0.00 73 1019.8
20260507160432 58 321 0.0 2.6 0.00 0.00 0.00 75 1019.8
20260507155932 57 317 0.0 3.5 0.00 0.00 0.00 78 1019.8
20260507155402 56 44 0.0 3.5 0.00 0.00 0.00 78 1019.9
20260507153402 55 360 2.6 3.5 0.00 0.00 0.00 79 1020.0
20260507152902 55 360 0.9 3.5 0.00 0.00 0.00 80 1020.0
20260507151902 55 360 0.0 3.5 0.00 0.00 0.00 80 1020.0
20260507151402 55 360 0.9 3.5 0.00 0.00 0.00 81 1020.0
20260507150931 55 360 0.9 1.7 0.00 0.00 0.00 82 1020.0
20260507150402 54 360 0.0 1.7 0.00 0.00 0.00 82 1020.0
20260507145902 54 360 0.0 1.7 0.00 0.00 0.00 82 1020.0
20260507145431 54 360 0.0 1.7 0.00 0.00 0.00 82 1019.9
20260507143902 54 360 0.0 0.0 0.00 0.00 0.00 84 1019.9
20260507142431 54 360 0.0 0.0 0.00 0.00 0.00 86 1019.8
20260507141931 53 360 0.0 0.0 0.00 0.00 0.00 86 1019.8
20260507141401 53 360 0.0 0.0 0.00 0.00 0.00 86 1019.8